EZY12WY EGAC-EGGW

Flight info

Callsign EZY12WY
Flight time 0h 53m
Altitude 33000
Route DUFFY L10 RINGA Q39 BABGU DCT ETIGA DCT INKOB Q39 NOMSU UQ4 LISTO
Aircraft A319/M-SDE3FGHIRWY/LB1

Departure

Time 2026-04-17 11:13
Airport George Best Belfast City Airport (EGAC)

Arrival

Time 2026-04-17 12:06
Airport London Luton Airport (EGGW)
Time Latitude Longitude Altitude Speed Heading
2026-04-17 10:58 54.61503 -5.87152 24 ft 0 kts 160°
2026-04-17 11:06 54.61504 -5.87153 21 ft 3 kts 160°
2026-04-17 11:06 54.61522 -5.87164 23 ft 3 kts 160°
2026-04-17 11:07 54.61539 -5.87177 22 ft 3 kts 127°
2026-04-17 11:07 54.61546 -5.87207 21 ft 3 kts 82°
2026-04-17 11:07 54.61546 -5.87218 21 ft 0 kts 68°
2026-04-17 11:08 54.61546 -5.87217 21 ft 1 kts 68°
2026-04-17 11:09 54.61549 -5.87206 24 ft 1 kts 65°
2026-04-17 11:09 54.61554 -5.87198 23 ft 1 kts 43°
2026-04-17 11:09 54.61563 -5.87184 22 ft 3 kts 38°
2026-04-17 11:10 54.61654 -5.87077 22 ft 14 kts 36°
2026-04-17 11:10 54.61750 -5.86997 21 ft 17 kts 349°
2026-04-17 11:10 54.61832 -5.87155 22 ft 19 kts 322°
2026-04-17 11:10 54.61953 -5.87078 20 ft 23 kts 36°
2026-04-17 11:11 54.62093 -5.86909 20 ft 27 kts 34°
2026-04-17 11:11 54.62253 -5.86719 24 ft 29 kts 34°
2026-04-17 11:11 54.62415 -5.86545 25 ft 20 kts
2026-04-17 11:11 54.62482 -5.86484 23 ft 10 kts 98°
2026-04-17 11:12 54.62456 -5.86472 24 ft 1 kts 224°
2026-04-17 11:12 54.62439 -5.86498 24 ft 10 kts 219°
2026-04-17 11:12 54.62181 -5.86819 23 ft 87 kts 215°
2026-04-17 11:12 54.61466 -5.87695 136 ft 151 kts 214°
2026-04-17 11:13 54.60587 -5.88775 804 ft 166 kts 215°
2026-04-17 11:13 54.59579 -5.90032 1344 ft 188 kts 216°
2026-04-17 11:13 54.58460 -5.91403 1925 ft 212 kts 214°
2026-04-17 11:13 54.56991 -5.92239 2585 ft 238 kts 184°
2026-04-17 11:14 54.55362 -5.91369 3522 ft 258 kts 151°
2026-04-17 11:14 54.53902 -5.89524 4620 ft 264 kts 147°
2026-04-17 11:14 54.52938 -5.88223 5319 ft 267 kts 146°
2026-04-17 11:14 54.51517 -5.86116 6391 ft 274 kts 137°
2026-04-17 11:15 54.50376 -5.83422 7351 ft 282 kts 128°
2026-04-17 11:15 54.49280 -5.80596 8302 ft 287 kts 129°
2026-04-17 11:15 54.48143 -5.77725 9254 ft 292 kts 129°
2026-04-17 11:15 54.46979 -5.74821 10096 ft 301 kts 129°
2026-04-17 11:16 54.45734 -5.71743 10483 ft 325 kts 129°
2026-04-17 11:16 54.44393 -5.68441 10846 ft 347 kts 129°
2026-04-17 11:16 54.42996 -5.64988 11531 ft 357 kts 129°
2026-04-17 11:16 54.41572 -5.61457 12319 ft 362 kts 129°
2026-04-17 11:17 54.40128 -5.57874 13104 ft 368 kts 129°
2026-04-17 11:17 54.38663 -5.54236 13877 ft 373 kts 130°
2026-04-17 11:17 54.37179 -5.50547 14591 ft 377 kts 130°
2026-04-17 11:17 54.35680 -5.46829 15305 ft 382 kts 130°
2026-04-17 11:18 54.34156 -5.43068 16009 ft 386 kts 130°
2026-04-17 11:18 54.32610 -5.39270 16699 ft 390 kts 130°
2026-04-17 11:18 54.31048 -5.35439 17399 ft 394 kts 131°
2026-04-17 11:18 54.29469 -5.31571 18083 ft 399 kts 131°
2026-04-17 11:19 54.27869 -5.27666 18675 ft 403 kts 131°
2026-04-17 11:19 54.26190 -5.23813 19271 ft 405 kts 134°
2026-04-17 11:19 54.24425 -5.20046 19881 ft 407 kts 136°
2026-04-17 11:19 54.22597 -5.16317 20477 ft 410 kts 137°
2026-04-17 11:20 54.20740 -5.12592 21084 ft 414 kts 137°
2026-04-17 11:20 54.18863 -5.08827 21672 ft 418 kts 137°
2026-04-17 11:20 54.16985 -5.05016 22246 ft 422 kts 136°
2026-04-17 11:20 54.15102 -5.01151 22804 ft 425 kts 136°
2026-04-17 11:21 54.13236 -4.97289 23334 ft 429 kts 136°
2026-04-17 11:21 54.11312 -4.93290 23812 ft 432 kts 136°
2026-04-17 11:21 54.09422 -4.89365 24275 ft 435 kts 136°
2026-04-17 11:21 54.07491 -4.85382 24718 ft 437 kts 136°
2026-04-17 11:22 54.05544 -4.81382 25153 ft 440 kts 136°
2026-04-17 11:22 54.03591 -4.77346 25590 ft 443 kts 136°
2026-04-17 11:22 54.01676 -4.73208 26038 ft 447 kts 134°
2026-04-17 11:22 53.99787 -4.68971 26469 ft 450 kts 134°
2026-04-17 11:23 53.97914 -4.64684 26890 ft 453 kts 133°
2026-04-17 11:23 53.96034 -4.60363 27308 ft 456 kts 134°
2026-04-17 11:23 53.94135 -4.56022 27727 ft 458 kts 134°
2026-04-17 11:23 53.92218 -4.51685 28133 ft 461 kts 134°
2026-04-17 11:24 53.90276 -4.47347 28525 ft 463 kts 135°
2026-04-17 11:24 53.88311 -4.43004 28903 ft 465 kts 135°
2026-04-17 11:24 53.86337 -4.38628 29292 ft 469 kts 134°
2026-04-17 11:24 53.84411 -4.34145 29654 ft 473 kts 133°
2026-04-17 11:25 53.82552 -4.29610 30008 ft 476 kts 131°
2026-04-17 11:25 53.80694 -4.24958 30306 ft 479 kts 131°
2026-04-17 11:25 53.78830 -4.20262 30609 ft 481 kts 131°
2026-04-17 11:25 53.76951 -4.15574 30980 ft 481 kts 132°
2026-04-17 11:26 53.75061 -4.10917 31396 ft 479 kts 133°
2026-04-17 11:26 53.73167 -4.06297 31808 ft 478 kts 133°
2026-04-17 11:26 53.71265 -4.01698 32237 ft 477 kts 133°
2026-04-17 11:26 53.69357 -3.97122 32666 ft 476 kts 134°
2026-04-17 11:27 53.67444 -3.92552 32929 ft 477 kts 134°
2026-04-17 11:27 53.65543 -3.87998 32979 ft 472 kts 134°
2026-04-17 11:27 53.61789 -3.78976 32980 ft 469 kts 134°
2026-04-17 11:28 53.58037 -3.70001 32986 ft 468 kts 134°
2026-04-17 11:28 53.54279 -3.61058 32988 ft 468 kts 134°
2026-04-17 11:29 53.50535 -3.52193 32990 ft 468 kts 134°
2026-04-17 11:29 53.46872 -3.43121 32988 ft 476 kts 127°
2026-04-17 11:30 53.44140 -3.32842 32982 ft 483 kts 121°
2026-04-17 11:30 53.41503 -3.22461 33002 ft 483 kts 121°
2026-04-17 11:31 53.38858 -3.12106 32998 ft 484 kts 121°
2026-04-17 11:31 53.36406 -3.01562 32997 ft 487 kts 118°
2026-04-17 11:32 53.34099 -2.90896 33004 ft 489 kts 117°
2026-04-17 11:32 53.31741 -2.80174 33028 ft 490 kts 118°
2026-04-17 11:33 53.29136 -2.69786 33027 ft 484 kts 124°
2026-04-17 11:33 53.26143 -2.59700 33028 ft 484 kts 124°
2026-04-17 11:34 53.23169 -2.49620 33029 ft 484 kts 124°
2026-04-17 11:34 53.20184 -2.39548 33020 ft 484 kts 124°
2026-04-17 11:35 53.17191 -2.29495 33010 ft 483 kts 124°
2026-04-17 11:35 53.13630 -2.20238 33010 ft 465 kts 140°
2026-04-17 11:36 53.11378 -2.16466 33012 ft 454 kts 148°
2026-04-17 11:36 53.08902 -2.13276 33014 ft 448 kts 154°
2026-04-17 11:36 53.03893 -2.07211 33025 ft 448 kts 153°
2026-04-17 11:37 52.98861 -2.01084 33026 ft 449 kts 153°
2026-04-17 11:37 52.93811 -1.94952 33038 ft 450 kts 153°
2026-04-17 11:38 52.88756 -1.88849 33038 ft 450 kts 153°
2026-04-17 11:38 52.83690 -1.82771 33039 ft 450 kts 153°
2026-04-17 11:39 52.78616 -1.76691 33047 ft 451 kts 153°
2026-04-17 11:39 52.73461 -1.70909 33035 ft 441 kts 161°
2026-04-17 11:40 52.68029 -1.66236 33030 ft 441 kts 162°
2026-04-17 11:40 52.62589 -1.61559 33028 ft 441 kts 161°
2026-04-17 11:41 52.57152 -1.56899 33025 ft 440 kts 161°
2026-04-17 11:41 52.51714 -1.52258 33034 ft 441 kts 161°
2026-04-17 11:42 52.48996 -1.49937 32872 ft 438 kts 161°
2026-04-17 11:42 52.46303 -1.47634 32274 ft 434 kts 161°
2026-04-17 11:42 52.43640 -1.45357 31685 ft 430 kts 161°
2026-04-17 11:42 52.41004 -1.43108 31117 ft 426 kts 161°
2026-04-17 11:43 52.38378 -1.40877 30519 ft 423 kts 161°
2026-04-17 11:43 52.35773 -1.38678 29854 ft 420 kts 161°
2026-04-17 11:43 52.33181 -1.36494 29149 ft 418 kts 161°
2026-04-17 11:43 52.30603 -1.34318 28458 ft 415 kts 161°
2026-04-17 11:44 52.28057 -1.32126 27783 ft 414 kts 159°
2026-04-17 11:44 52.25552 -1.29837 27127 ft 412 kts 158°
2026-04-17 11:44 52.23075 -1.27482 26484 ft 410 kts 157°
2026-04-17 11:44 52.20664 -1.25148 25863 ft 407 kts 157°
2026-04-17 11:45 52.18202 -1.22771 25243 ft 404 kts 156°
2026-04-17 11:45 52.15784 -1.20455 24637 ft 402 kts 157°
2026-04-17 11:45 52.13406 -1.18199 24062 ft 399 kts 157°
2026-04-17 11:45 52.11013 -1.15948 23445 ft 397 kts 157°
2026-04-17 11:46 52.08618 -1.13717 22762 ft 396 kts 157°
2026-04-17 11:46 52.06228 -1.11501 22093 ft 395 kts 157°
2026-04-17 11:46 52.03899 -1.09113 21426 ft 401 kts 147°
2026-04-17 11:46 52.01978 -1.05761 20794 ft 414 kts 130°
2026-04-17 11:47 52.00723 -1.01500 20166 ft 425 kts 111°
2026-04-17 11:47 52.00318 -0.96708 19564 ft 435 kts 92°
2026-04-17 11:47 52.00609 -0.91803 18966 ft 436 kts 86°
2026-04-17 11:47 52.00964 -0.86923 18371 ft 436 kts 86°
2026-04-17 11:48 52.01325 -0.82044 17695 ft 435 kts 86°
2026-04-17 11:48 52.01747 -0.77198 17026 ft 435 kts 79°
2026-04-17 11:48 52.02839 -0.72622 16379 ft 436 kts 60°
2026-04-17 11:48 52.04703 -0.68768 15814 ft 433 kts 45°
2026-04-17 11:49 52.06801 -0.65296 15318 ft 427 kts 44°
2026-04-17 11:49 52.08876 -0.61874 14827 ft 422 kts 44°
2026-04-17 11:49 52.10924 -0.58489 14331 ft 416 kts 45°
2026-04-17 11:49 52.12937 -0.55152 13864 ft 410 kts 45°
2026-04-17 11:50 52.14916 -0.51856 13322 ft 403 kts 45°
2026-04-17 11:50 52.16857 -0.48610 12796 ft 397 kts 45°
2026-04-17 11:50 52.18766 -0.45414 12277 ft 391 kts 45°
2026-04-17 11:50 52.20768 -0.42476 11766 ft 383 kts 31°
2026-04-17 11:51 52.23174 -0.40857 11261 ft 370 kts
2026-04-17 11:51 52.25701 -0.40635 10760 ft 360 kts 356°
2026-04-17 11:51 52.28194 -0.40687 10281 ft 355 kts 355°
2026-04-17 11:51 52.30619 -0.40758 9778 ft 349 kts 355°
2026-04-17 11:52 52.33033 -0.40787 9246 ft 346 kts 360°
2026-04-17 11:52 52.35335 -0.39709 8713 ft 348 kts 28°
2026-04-17 11:52 52.37082 -0.37017 8204 ft 347 kts 57°
2026-04-17 11:52 52.37814 -0.33377 7976 ft 332 kts 89°
2026-04-17 11:53 52.37382 -0.29856 7978 ft 304 kts 121°
2026-04-17 11:53 52.36067 -0.27357 7812 ft 284 kts 147°
2026-04-17 11:53 52.34467 -0.25522 7452 ft 279 kts 150°
2026-04-17 11:53 52.32855 -0.23777 7071 ft 277 kts 151°
2026-04-17 11:54 52.31247 -0.22059 6656 ft 275 kts 151°
2026-04-17 11:54 52.29647 -0.20359 6235 ft 273 kts 151°
2026-04-17 11:54 52.28093 -0.18576 5837 ft 273 kts 144°
2026-04-17 11:54 52.26686 -0.16509 5425 ft 271 kts 141°
2026-04-17 11:55 52.25229 -0.14603 5006 ft 264 kts 156°
2026-04-17 11:55 52.23597 -0.13354 4657 ft 258 kts 161°
2026-04-17 11:55 52.21949 -0.12251 4500 ft 254 kts 167°
2026-04-17 11:55 52.20272 -0.11528 4508 ft 241 kts 171°
2026-04-17 11:56 52.18686 -0.10891 4504 ft 236 kts 171°
2026-04-17 11:56 52.17097 -0.10261 4512 ft 235 kts 171°
2026-04-17 11:56 52.15510 -0.09637 4435 ft 230 kts 171°
2026-04-17 11:56 52.13981 -0.09029 4217 ft 224 kts 171°
2026-04-17 11:57 52.12481 -0.08436 4028 ft 220 kts 171°
2026-04-17 11:57 52.11008 -0.07850 3750 ft 218 kts 171°
2026-04-17 11:57 52.09541 -0.07274 3452 ft 216 kts 171°
2026-04-17 11:57 52.08088 -0.06722 3167 ft 213 kts 171°
2026-04-17 11:58 52.06644 -0.06186 3016 ft 213 kts 171°
2026-04-17 11:58 52.05199 -0.05675 3014 ft 212 kts 171°
2026-04-17 11:58 52.03749 -0.05172 3008 ft 213 kts 171°
2026-04-17 11:58 52.02302 -0.04670 3021 ft 212 kts 172°
2026-04-17 11:59 52.00853 -0.04145 3032 ft 214 kts 171°
2026-04-17 11:59 51.99399 -0.03614 3034 ft 214 kts 171°
2026-04-17 11:59 51.97943 -0.03084 3036 ft 215 kts 171°
2026-04-17 11:59 51.96468 -0.02753 3032 ft 211 kts 185°
2026-04-17 12:00 51.95136 -0.03323 3021 ft 194 kts 209°
2026-04-17 12:00 51.94163 -0.04670 3053 ft 181 kts 226°
2026-04-17 12:00 51.93336 -0.06150 3032 ft 170 kts 227°
2026-04-17 12:00 51.92612 -0.07556 3016 ft 155 kts 235°
2026-04-17 12:01 51.92219 -0.09156 3015 ft 151 kts 251°
2026-04-17 12:01 51.91945 -0.10744 3015 ft 144 kts 249°
2026-04-17 12:01 51.91677 -0.12287 3023 ft 141 kts 249°
2026-04-17 12:01 51.91420 -0.13781 2841 ft 136 kts 250°
2026-04-17 12:02 51.91166 -0.15262 2552 ft 136 kts 250°
2026-04-17 12:02 51.91000 -0.16235 2314 ft 136 kts 250°
2026-04-17 12:02 51.90667 -0.18179 2018 ft 135 kts 250°
2026-04-17 12:02 51.90413 -0.19660 2019 ft 138 kts 250°
2026-04-17 12:03 51.90156 -0.21166 2017 ft 138 kts 250°
2026-04-17 12:03 51.89906 -0.22628 2004 ft 131 kts 249°
2026-04-17 12:03 51.89746 -0.23566 1875 ft 126 kts 250°
2026-04-17 12:03 51.89513 -0.24924 1517 ft 126 kts 249°
2026-04-17 12:04 51.89278 -0.26294 1157 ft 125 kts 250°
2026-04-17 12:04 51.89041 -0.27672 1205 ft 130 kts 249°
2026-04-17 12:04 51.88799 -0.29078 1206 ft 130 kts 249°
2026-04-17 12:04 51.88557 -0.30488 1139 ft 130 kts 250°
2026-04-17 12:05 51.88320 -0.31899 1021 ft 131 kts 251°
2026-04-17 12:05 51.88085 -0.33318 882 ft 131 kts 249°
2026-04-17 12:05 51.87838 -0.34751 671 ft 131 kts 249°
2026-04-17 12:05 51.87604 -0.36076 519 ft 110 kts 248°
2026-04-17 12:06 51.87427 -0.37030 523 ft 65 kts 255°
2026-04-17 12:06 51.87344 -0.37523 522 ft 22 kts 255°
2026-04-17 12:06 51.87360 -0.37700 521 ft 17 kts 334°
2026-04-17 12:06 51.87444 -0.37608 522 ft 15 kts 46°
2026-04-17 12:07 51.87476 -0.37555 522 ft 0 kts 46°
2026-04-17 12:08 51.87477 -0.37554 522 ft 1 kts 46°
2026-04-17 12:08 51.87488 -0.37534 522 ft 4 kts 46°
2026-04-17 12:08 51.87504 -0.37509 521 ft 0 kts 44°
2026-04-17 12:08 51.87508 -0.37503 521 ft 2 kts 41°
2026-04-17 12:09 51.87531 -0.37479 521 ft 5 kts 28°
2026-04-17 12:09 51.87564 -0.37457 522 ft 5 kts 13°
2026-04-17 12:09 51.87595 -0.37456 523 ft 4 kts 354°
2026-04-17 12:09 51.87633 -0.37469 523 ft 8 kts 343°
2026-04-17 12:10 51.87689 -0.37539 521 ft 13 kts 304°
2026-04-17 12:10 51.87736 -0.37692 521 ft 15 kts 293°
2026-04-17 12:10 51.87780 -0.37848 524 ft 11 kts 295°
2026-04-17 12:10 51.87787 -0.37863 523 ft 1 kts 318°
2026-04-17 12:11 51.87788 -0.37865 523 ft 0 kts 318°
2026-04-17 12:11 51.87797 -0.37871 523 ft 3 kts 348°
2026-04-17 12:11 51.87823 -0.37857 523 ft 5 kts 26°
2026-04-17 12:12 51.87840 -0.37843 523 ft 0 kts 30°